Home   Weather   Wellington   Past weeks

Flag for New Zealand Past Weather in Wellington, New Zealand — Yesterday and Last 2 Weeks

Now
57 °F

Passing clouds.


Feels Like: 55 °F
Forecast: 55 / 60 °F
Wind: 12 mph from Northeast

Location: Wellington Airport

Current Time: Oct 2, 2016 at 4:32:00 AM

Latest Report: Oct 2, 2016 at 4:00 AM


Visibility: N/A

Pressure: 29.80 "Hg

Humidity: 82%

Dew Point: 52 °F

Location of WellingtonLocation

Past Weather in Wellington — Graph

°F

Wellington Temperature Yesterday

Maximum temperature yesterday: 61 °F (at 12:00 PM)
Minimum temperature yesterday: 55 °F (at 2:00 AM)
Average temperature yesterday: 58 °F

High & Low Weather Summary for the Past Weeks

 TemperatureHumidityPressure
High66 °F (Sep 30, 4:00 PM)100% (Sep 17, 6:30 PM)30.09 "Hg (Sep 17, 6:30 PM)
Low45 °F (Sep 30, 7:00 AM)56% (Sep 30, 4:00 PM)29.68 "Hg (Sep 27, 5:00 PM)
Average53 °F82%29.89 "Hg
* Reported Sep 17 2:00 AM — Oct 2 3:30 AM, Wellington, Weather by CustomWeather, © 2016

Note: Actual official high and low records may vary slightly from our data, if they occured in-between our weather recording intervals... More about our weather records

Advertising

Wellington Weather History for the Previous 24 Hours

Scroll right to see more
 ConditionsComfort  
Time TempWeatherWind HumidityBarometerVisibility
3:30 AM
Sun, Oct 2
57 °FPassing clouds.14 mph82%29.83 "HgN/A
3:00 AM55 °FCool.15 mph88%29.83 "HgN/A
2:30 AM55 °FCool.12 mph88%29.83 "HgN/A
2:00 AM55 °FCool.14 mph88%29.86 "HgN/A
1:30 AM55 °FCool.10 mph88%29.86 "HgN/A
1:00 AM55 °FPassing clouds.10 mph88%29.89 "HgN/A
12:30 AM57 °FPassing clouds.12 mph88%29.89 "HgN/A
12:00 AM57 °FPassing clouds.14 mph88%29.89 "HgN/A
11:30 PM
Sat, Oct 1
57 °FLight rain. Passing clouds.18 mph88%29.92 "HgN/A
11:00 PM57 °FPassing clouds.13 mph88%29.92 "HgN/A
10:30 PM57 °FPartly cloudy.12 mph94%29.92 "HgN/A
10:00 PM57 °FSprinkles. Passing clouds.14 mph94%29.92 "HgN/A
9:30 PM59 °FPassing clouds.12 mph82%29.92 "HgN/A
9:00 PM57 °FSprinkles. Passing clouds.10 mph94%29.92 "HgN/A
8:30 PM57 °FLight rain. Mostly cloudy.8 mph88%29.95 "HgN/A
8:00 PM57 °FLight rain. Partly cloudy.9 mph88%29.92 "HgN/A
7:30 PM59 °FPassing clouds.12 mph82%29.95 "HgN/A
7:00 PM59 °FPartly sunny.12 mph82%29.95 "HgN/A
6:30 PM59 °FPartly sunny.13 mph82%29.95 "HgN/A
6:00 PM59 °FMostly cloudy.15 mph82%29.95 "HgN/A
5:30 PM59 °FPartly sunny.15 mph82%29.95 "HgN/A
5:00 PM59 °FSprinkles. Overcast.14 mph82%29.95 "HgN/A
4:30 PM59 °FSprinkles. Mostly cloudy.15 mph88%29.95 "HgN/A
4:00 PM59 °FSprinkles. Mostly cloudy.14 mph82%29.98 "HgN/A
3:30 PM59 °FSprinkles. Partly sunny.15 mph82%29.98 "HgN/A
3:00 PM61 °FPartly sunny.15 mph77%29.98 "HgN/A
2:30 PM61 °FMostly cloudy.16 mph77%29.98 "HgN/A
2:00 PM61 °FPartly sunny.16 mph77%30.01 "HgN/A
1:30 PM59 °FBroken clouds.17 mph82%30.01 "HgN/A
1:00 PM61 °FPartly sunny.17 mph77%30.01 "HgN/A
12:30 PM59 °FMostly cloudy.15 mph82%30.01 "HgN/A
12:00 PM61 °FCloudy.16 mph77%30.01 "HgN/A
11:30 AM59 °FMore clouds than sun.16 mph82%30.01 "HgN/A
11:00 AM59 °FPartly sunny.16 mph82%30.04 "HgN/A
10:30 AM59 °FMostly cloudy.16 mph82%30.01 "HgN/A
10:00 AM59 °FPartly sunny.15 mph77%30.04 "HgN/A
9:30 AM59 °FPartly sunny.14 mph77%30.01 "HgN/A
9:00 AM57 °FPartly sunny.18 mph88%30.01 "HgN/A
8:30 AM57 °FMostly cloudy.16 mph88%30.01 "HgN/A
8:00 AM57 °FBroken clouds.16 mph88%30.01 "HgN/A
7:30 AM57 °FPartly sunny.16 mph88%30.01 "HgN/A
7:00 AM57 °FPartly sunny.14 mph88%30.01 "HgN/A
6:30 AM57 °FPassing clouds.15 mph88%29.98 "HgN/A
6:00 AM57 °FPassing clouds.15 mph88%29.98 "HgN/A
5:30 AM57 °FPassing clouds.14 mph88%29.98 "HgN/A
5:00 AM57 °FOvercast.14 mph88%30.01 "HgN/A
4:30 AM55 °FPassing clouds.15 mph94%29.98 "HgN/A
4:00 AM55 °FMostly cloudy.13 mph94%30.01 "HgN/A
Weather by CustomWeather, © 2016

See weather overviewHow to use our weather pages